User: anonymous   Login
Location: Table Mountain
(47.2500°N, 120.5778°W)
Time: 03:23:12
(UTC-08:00)
Language:

Tiangong 2 - Orbit

View from above orbital plane
View from above orbital plane
View from above satellite
View from above satellite

Ground track
Ground track

The orbit data is extracted from the following two-line orbital elements,

1 41765U 16057A   17347.13121135  .00003965  00000-0  52655-4 0  9991
2 41765  42.7858  11.4253 0002797  15.8597  86.6122 15.59801328 70919
Epoch (UTC): 13 December 2017 03:08:56
Eccentricity: 0.0002797
inclination: 42.7858°
perigee height: 386 km
apogee height: 390 km
right ascension of ascending node: 11.4253°
argument of perigee: 15.8597°
revolutions per day: 15.59801328
mean anomaly at epoch: 86.6122°
orbit number at epoch: 7091

The dashed part of the orbit path shows where the satellite is in the earth's shadow,  

DLR